Stations météo

réclame
Mon MeteoGroup
Winterbourne No 2, Grande-Bretagne (99062): Température de l'air & dewpoint: 16.10.2020 04:00:00 - 22.10.2020 04:00:00 (BST)Winterbourne No 2, Grande-Bretagne (99062): Température de l'air -20cm & Température de l'air -100cm: 16.10.2020 04:00:00 - 22.10.2020 04:00:00 (BST)Winterbourne No 2, Grande-Bretagne (99062): Quantités de précipitations: 16.10.2020 04:00:00 - 22.10.2020 04:00:00 (BST)
Date & Time tt [°C] td [°C] tt -20cm [°C] tt -100cm [°C] rr [mm]
22.10.2020 04:00:00 10,8 10,3 - - 0,0
22.10.2020 03:00:00 10,8 10,5 - - 0,0
22.10.2020 02:00:00 10,8 10,5 - - 0,0
22.10.2020 01:00:00 10,8 10,3 - - 0,2
22.10.2020 00:00:00 11,0 10,5 - - 2,4
21.10.2020 23:00:00 11,8 11,3 - - 4,6
21.10.2020 22:00:00 12,9 12,4 - - 1,0
21.10.2020 21:00:00 13,0 12,3 - - 0,0
21.10.2020 20:00:00 13,2 12,5 - - 0,4
21.10.2020 19:00:00 13,4 12,7 - - 0,2
21.10.2020 18:00:00 13,5 12,5 - - 0,0
21.10.2020 17:00:00 13,8 12,9 - - 0,2
21.10.2020 16:00:00 14,1 13,0 - - 0,2
21.10.2020 15:00:00 14,2 13,1 - - 0,0
21.10.2020 14:00:00 14,3 13,3 - - 0,2
21.10.2020 13:00:00 14,5 14,1 - - 0,2
21.10.2020 12:00:00 14,1 13,7 - - 0,4
21.10.2020 11:00:00 14,0 13,8 - - 0,0
21.10.2020 10:00:00 13,7 13,5 12,4 12,7 0,2
21.10.2020 09:00:00 13,5 13,2 - - 0,2
21.10.2020 08:00:00 13,4 13,1 - - 0,2
21.10.2020 07:00:00 13,3 12,9 - - 0,0
21.10.2020 06:00:00 13,2 12,8 - - 0,0
21.10.2020 05:00:00 13,0 12,5 - - 0,0
21.10.2020 04:00:00 13,3 12,6 - - 0,0
21.10.2020 03:00:00 13,5 12,9 - - 0,0
21.10.2020 02:00:00 13,3 12,6 - - 0,0
21.10.2020 01:00:00 13,3 12,6 - - 0,0
21.10.2020 00:00:00 13,3 12,6 - - 0,0
20.10.2020 23:00:00 13,1 12,4 - - 0,0
20.10.2020 22:00:00 13,2 12,5 - - 0,2
20.10.2020 21:00:00 13,4 12,6 - - 1,2
20.10.2020 20:00:00 13,4 12,4 - - 0,6
20.10.2020 19:00:00 13,5 12,3 - - 0,4
20.10.2020 18:00:00 14,6 11,5 - - 0,0
20.10.2020 17:00:00 15,8 10,3 - - 0,0
20.10.2020 16:00:00 16,5 10,4 - - 0,0
20.10.2020 15:00:00 17,0 11,6 - - 0,0
20.10.2020 14:00:00 16,1 11,3 - - 0,0
20.10.2020 13:00:00 16,1 10,9 - - 0,0
20.10.2020 12:00:00 15,7 12,2 - - 0,0
20.10.2020 11:00:00 14,9 12,2 - - 0,0
20.10.2020 10:00:00 14,4 12,9 11,7 12,7 0,0
20.10.2020 09:00:00 13,4 12,5 - - 0,0
20.10.2020 08:00:00 12,9 12,1 - - 0,0
20.10.2020 07:00:00 12,0 11,4 - - 0,0
20.10.2020 06:00:00 11,4 10,9 - - 0,0
20.10.2020 05:00:00 10,6 10,0 - - 0,2
20.10.2020 04:00:00 10,3 9,5 - - 0,2
20.10.2020 03:00:00 10,1 9,0 - - 1,2
20.10.2020 02:00:00 10,5 8,0 - - 0,0
20.10.2020 01:00:00 10,6 7,5 - - 0,0
20.10.2020 00:00:00 10,4 7,0 - - 0,0
19.10.2020 23:00:00 10,5 6,9 - - 0,0
19.10.2020 22:00:00 10,5 6,8 - - 0,0
19.10.2020 21:00:00 10,9 6,8 - - 0,0
19.10.2020 20:00:00 11,3 6,7 - - 0,0
19.10.2020 19:00:00 11,7 6,4 - - 0,0
19.10.2020 18:00:00 12,0 6,1 - - 0,0
19.10.2020 17:00:00 12,7 6,4 - - 0,0
19.10.2020 16:00:00 13,0 6,2 - - 0,0
19.10.2020 15:00:00 13,6 6,2 - - 0,0
19.10.2020 14:00:00 13,0 8,7 - - 0,0
19.10.2020 13:00:00 12,9 8,1 - - 0,0
19.10.2020 12:00:00 10,8 7,7 - - 0,0
19.10.2020 11:00:00 10,2 7,4 - - 0,0
19.10.2020 10:00:00 9,3 7,2 11,7 12,7 0,0
19.10.2020 09:00:00 7,3 6,9 - - 0,0
19.10.2020 08:00:00 7,0 6,5 - - 0,0
19.10.2020 07:00:00 7,1 6,4 - - 0,0
19.10.2020 06:00:00 7,4 6,5 - - 0,0
19.10.2020 05:00:00 7,5 6,5 - - 0,0
19.10.2020 04:00:00 7,3 6,1 - - 0,0
19.10.2020 03:00:00 7,6 6,4 - - 0,0
19.10.2020 02:00:00 8,4 6,5 - - 0,0
19.10.2020 01:00:00 8,3 6,0 - - 0,0
19.10.2020 00:00:00 8,9 6,6 - - 0,0
18.10.2020 23:00:00 8,5 6,0 - - 0,0
18.10.2020 22:00:00 9,2 6,1 - - 0,0
18.10.2020 21:00:00 9,3 7,2 - - 0,0
18.10.2020 20:00:00 9,4 7,3 - - 0,0
18.10.2020 19:00:00 9,7 7,5 - - 0,0
18.10.2020 18:00:00 10,0 7,2 - - 0,0
18.10.2020 17:00:00 10,5 7,0 - - 0,0
18.10.2020 16:00:00 10,8 7,2 - - 0,0
18.10.2020 15:00:00 10,9 7,9 - - 0,0
18.10.2020 14:00:00 10,6 8,0 - - 0,0
18.10.2020 13:00:00 10,4 7,8 - - 0,0
18.10.2020 12:00:00 9,8 7,8 - - 0,0
18.10.2020 11:00:00 9,4 8,0 - - 0,0
18.10.2020 10:00:00 8,8 8,3 11,7 12,7 0,0
18.10.2020 09:00:00 8,4 8,0 - - 0,0
18.10.2020 08:00:00 8,3 7,9 - - 0,0
18.10.2020 07:00:00 8,2 7,8 - - 0,0
18.10.2020 06:00:00 8,2 7,7 - - 0,0
18.10.2020 05:00:00 8,3 7,7 - - 0,0
18.10.2020 04:00:00 8,4 7,8 - - 0,0
18.10.2020 03:00:00 8,5 7,9 - - 0,0
18.10.2020 02:00:00 8,4 7,7 - - 0,0
18.10.2020 01:00:00 8,4 7,7 - - 0,0
18.10.2020 00:00:00 8,5 7,8 - - 0,0
17.10.2020 23:00:00 8,4 7,5 - - 0,0
17.10.2020 22:00:00 8,8 7,6 - - 0,0
17.10.2020 21:00:00 9,0 7,7 - - 0,0
17.10.2020 20:00:00 9,5 7,7 - - 0,0
17.10.2020 19:00:00 9,8 7,3 - - 0,0
17.10.2020 18:00:00 10,2 6,9 - - 0,0
17.10.2020 17:00:00 10,6 6,5 - - 0,0
17.10.2020 16:00:00 10,8 6,4 - - 0,0
17.10.2020 15:00:00 10,5 5,9 - - 0,0
17.10.2020 14:00:00 10,0 5,5 - - 0,0
17.10.2020 13:00:00 9,4 5,2 - - 0,0
17.10.2020 12:00:00 8,8 5,7 - - 0,0
17.10.2020 11:00:00 8,5 6,2 - - 0,0
17.10.2020 10:00:00 8,2 6,0 11,7 12,9 0,0
17.10.2020 09:00:00 6,4 5,5 - - 0,0
17.10.2020 08:00:00 5,9 4,4 - - 0,0
17.10.2020 07:00:00 7,2 5,3 - - 0,0
17.10.2020 06:00:00 7,9 5,6 - - 0,0
17.10.2020 05:00:00 8,3 5,7 - - 0,0
17.10.2020 04:00:00 8,5 6,2 - - 0,0
17.10.2020 03:00:00 8,6 6,7 - - 0,0
17.10.2020 02:00:00 8,7 7,1 - - 0,0
17.10.2020 01:00:00 9,0 7,1 - - 0,0
17.10.2020 00:00:00 9,0 7,0 - - 0,0
16.10.2020 23:00:00 9,1 6,8 - - 0,0
16.10.2020 22:00:00 9,4 7,0 - - 0,0
16.10.2020 21:00:00 9,4 7,3 - - 0,0
16.10.2020 20:00:00 9,6 7,5 - - 0,0
16.10.2020 19:00:00 9,9 7,8 - - 0,0
16.10.2020 18:00:00 10,0 7,9 - - 0,0
16.10.2020 17:00:00 10,0 7,7 - - 0,0
16.10.2020 16:00:00 10,6 7,5 - - 0,0
16.10.2020 15:00:00 10,5 7,7 - - 0,0
16.10.2020 14:00:00 10,0 7,6 - - 0,0
16.10.2020 13:00:00 10,4 7,2 - - 0,0
16.10.2020 12:00:00 9,8 6,9 - - 0,0
16.10.2020 11:00:00 9,7 6,7 - - 0,0
16.10.2020 10:00:00 7,9 6,0 11,7 13,0 0,0
16.10.2020 09:00:00 7,1 5,9 - - 0,0
16.10.2020 08:00:00 6,3 5,5 - - 0,0
16.10.2020 07:00:00 6,4 5,5 - - 0,0
16.10.2020 06:00:00 6,8 5,6 - - 0,0
16.10.2020 05:00:00 7,1 5,9 - - 0,0
16.10.2020 04:00:00 7,4 6,0 - - 0,0

tt = Température de l'air
td = dewpoint
tt -20cm = Température de l'air -20cm
tt -100cm = Température de l'air -100cm
rr = Quantités de précipitations

stations d'obs. à proximité